Flag for Denmark Weather past 2 weeks in Skagen, Denmark

Now
43 °F

Clear.


Feels Like: 36 °F
Forecast: 44 / 47 °F
Wind: 12 mph from Southwest

Location: Gothenburg / Save

Current Time: Apr 27, 2015 at 11:37:25 PM

Latest Report: Apr 27, 2015 at 10:50 PM


Visibility: 10 mi

Pressure: 29.71 "Hg

Humidity: 71%

Dew point: 34 °F

Location of SkagenLocation

Historic Weather in Skagen — Graph

°F

Skagen temperature yesterday

Maximum temperature yesterday: 50 °F (at 12:20 AM)
Minimum temperature yesterday: 37 °F (at 10:20 PM)
Average temperature yesterday: 45 °F

Past Weeks' High & Low Weather Summary

 TemperatureHumidityPressure
High63 °F (Apr 20, 12:50 PM)100% (Apr 14, 2:20 PM)30.33 "Hg (Apr 14, 2:20 PM)
Low28 °F (Apr 18, 4:50 AM)22% (Apr 20, 12:50 PM)29.50 "Hg (Apr 15, 4:50 PM)
Average46 °F73%29.92 "Hg
* Reported Apr 12 10:20 PM — Apr 27 10:20 PM, Skagen, Weather by CustomWeather, © 2015

Note: Actual official high and low records may vary slightly from our data, if they occured in-between our weather recording intervals... More about our weather records

Advertising

Skagen weather history for previous 24 hours

 ConditionsComfort  
Time TempWeatherWind HumidityBarometerVisibility
10:20 PM
Mon, Apr 27
45 °FPassing clouds.12 mph66%29.71 "HgN/A
9:50 PM43 °FPassing clouds.5 mph66%29.71 "HgN/A
9:20 PM43 °FPassing clouds.5 mph66%29.71 "HgN/A
8:50 PM43 °FPassing clouds.5 mph71%29.71 "HgN/A
8:20 PM45 °FPassing clouds.6 mph66%29.71 "HgN/A
7:50 PM45 °FScattered clouds.12 mph66%29.68 "HgN/A
7:20 PM46 °FPassing clouds.9 mph62%29.68 "HgN/A
6:50 PM46 °FScattered clouds.9 mph66%29.68 "HgN/A
6:26 PM46 °FPassing clouds.13 mph66%29.68 "HgN/A
5:50 PM46 °FScattered showers. Scattered clouds.14 mph66%29.68 "HgN/A
5:20 PM46 °FScattered clouds.10 mph66%29.68 "HgN/A
4:50 PM46 °FScattered clouds.12 mph62%29.68 "HgN/A
4:20 PM48 °FPartly sunny.12 mph58%29.68 "HgN/A
3:50 PM48 °FScattered clouds.10 mph58%29.68 "HgN/A
3:20 PM48 °FPartly sunny.13 mph62%29.68 "HgN/A
2:50 PM48 °FScattered clouds.10 mph62%29.68 "HgN/A
2:20 PM48 °FScattered clouds.10 mph58%29.68 "HgN/A
1:50 PM46 °FBroken clouds.13 mph62%29.68 "HgN/A
1:20 PM48 °FBroken clouds.16 mph58%29.68 "HgN/A
12:50 PM46 °FScattered clouds.9 mph62%29.68 "HgN/A
12:20 PM46 °FBroken clouds.12 mph57%29.68 "HgN/A
11:50 AM48 °FBroken clouds.12 mph54%29.68 "HgN/A
11:20 AM46 °FBroken clouds.10 mph66%29.68 "HgN/A
10:50 AM46 °FDrizzle. Partly sunny.8 mph66%29.68 "HgN/A
10:20 AM48 °FBroken clouds.9 mph62%29.68 "HgN/A
9:50 AM46 °FPartly sunny.8 mph66%29.65 "HgN/A
9:20 AM45 °FPartly sunny.8 mph66%29.65 "HgN/A
8:50 AM45 °FScattered clouds.9 mph66%29.68 "HgN/A
8:20 AM45 °FScattered clouds.7 mph71%29.65 "HgN/A
7:50 AM45 °FScattered clouds.5 mph76%29.65 "HgN/A
7:20 AM39 °FScattered clouds.3 mph93%29.65 "HgN/A
6:50 AM36 °FSunny.3 mph93%29.65 "Hg10 mi
6:20 AM32 °FPassing clouds.3 mph93%29.65 "HgN/A
5:20 AM32 °FPassing clouds.2 mph93%29.65 "HgN/A
4:50 AM32 °FPassing clouds.3 mph93%29.65 "HgN/A
4:20 AM32 °FClear.2 mph93%29.65 "Hg10 mi
3:50 AM32 °FClear.2 mph93%29.68 "Hg10 mi
2:50 AM34 °FClear.3 mph93%29.68 "Hg10 mi
2:20 AM36 °FClear.3 mph93%29.68 "Hg10 mi
1:50 AM36 °FClear.5 mph93%29.68 "Hg10 mi
1:20 AM34 °FClear.5 mph93%29.68 "Hg10 mi
12:50 AM37 °FClear.6 mph81%29.68 "Hg10 mi
12:20 AM37 °FClear.3 mph87%29.68 "Hg10 mi
11:50 PM
Sun, Apr 26
37 °FPassing clouds.3 mph87%29.68 "HgN/A
11:20 PM37 °FPassing clouds.3 mph87%29.68 "HgN/A
Weather by CustomWeather, © 2015

See weather overviewHow to use our weather pages